"startDT [UTC]","vpos","CH4 [ppm]","stdev(CH4) [ppm]","CO2 [ppm]","stdev(CO2) [ppm]","H2O_reported [%]","stdev(H2O_reported)","CavityPressure [torr]","CavityTemp [C]","OutletValve","CH4_dry [ppm]","CO2_dry [ppm]","DasTemp [C]","EtalonTemp [C]","WarmBoxTemp [C]","MPVPosition","T_ECpre [C]","T_EC1 [C]","T_EC2 [C]","p_inlet [hPa]","p_in [hPa]","p_out [hPa]","T_inlet [C]","RH_inlet [%]","dwpt_inlet [C]","T_vent [C]","RH_vent [%]","dwpt_vent [C]","flow_vent [l min-1]","flow_inlet [l min-1]","dwpt_sample [C]","T_room [C]"
2016-09-25 00:00:00,0.0,1.93419,0.00124,394.481,0.054,0.5267,0.0017,139.999,45.000,31417.89564,1.94435,397.020,36.058,45.070,45.000,0.00,0.07,-272.87,-272.91,-8,522,-934,21.1,16.0,-5.7,21.2,16.2,-5.4,0.49,1.83,0.1,26.8
2016-09-25 00:01:00,0.0,1.93586,0.00170,394.532,0.075,0.5263,0.0025,140.000,45.000,31418.14677,1.94607,397.070,36.056,45.070,45.000,0.00,0.08,-272.86,-272.91,-8,522,-934,21.1,16.0,-5.7,21.3,16.1,-5.5,0.49,1.84,0.1,26.8
2016-09-25 00:02:00,0.0,1.93401,0.00171,394.455,0.081,0.5302,0.0017,140.002,45.000,31420.09619,1.94423,397.010,36.065,45.070,45.000,0.00,0.08,-272.87,-272.90,-7,522,-934,21.1,16.1,-5.6,21.2,16.2,-5.4,0.49,2.06,0.1,26.8
2016-09-25 00:03:00,0.0,1.93407,0.00129,394.476,0.095,0.5280,0.0017,140.004,45.000,31420.21915,1.94432,397.022,36.063,45.071,45.000,0.00,0.08,-272.88,-272.91,-9,522,-934,21.1,16.1,-5.6,21.2,16.2,-5.4,0.49,1.77,0.1,26.8
2016-09-25 00:04:00,0.0,1.93333,0.00060,394.438,0.057,0.5339,0.0022,140.000,45.000,31419.61403,1.94361,397.009,36.062,45.071,45.000,0.00,0.08,-272.87,-272.92,-7,522,-934,21.1,16.2,-5.5,21.3,16.3,-5.3,0.50,1.92,0.1,26.8
2016-09-25 00:05:00,0.0,1.93452,0.00116,394.493,0.071,0.5392,0.0030,140.001,45.000,31419.86730,1.94499,397.094,36.052,45.071,45.000,0.00,0.08,-272.87,-272.91,-8,522,-934,21.1,16.4,-5.4,21.2,16.5,-5.2,0.49,2.02,0.1,26.8
2016-09-25 00:06:00,0.0,1.93433,0.00057,394.430,0.038,0.5396,0.0016,140.000,45.000,31419.57951,1.94470,397.031,36.060,45.071,45.000,0.00,0.08,-272.87,-272.91,-8,522,-934,21.1,16.4,-5.3,21.2,16.6,-5.1,0.49,1.74,0.1,26.8
2016-09-25 00:07:00,0.0,1.93197,0.00167,394.336,0.052,0.5410,0.0016,140.001,45.000,31419.53418,1.94259,396.947,36.063,45.071,45.001,0.00,0.07,-272.87,-272.91,-8,522,-934,21.1,16.5,-5.3,21.2,16.6,-5.1,0.49,1.99,0.1,26.8
2016-09-25 00:08:00,0.0,1.92939,0.00066,394.293,0.040,0.5367,0.0019,140.000,45.000,31420.09380,1.93978,396.880,36.066,45.071,45.001,0.00,0.08,-272.87,-272.90,-8,522,-934,21.1,16.3,-5.4,21.3,16.6,-5.1,0.49,1.96,0.1,26.8
2016-09-25 00:09:00,0.0,1.92999,0.00081,394.348,0.053,0.5341,0.0023,140.002,45.000,31420.26766,1.94028,396.923,36.087,45.071,45.000,0.00,0.08,-272.87,-272.90,-7,522,-934,21.1,16.3,-5.5,21.2,16.4,-5.2,0.49,1.74,0.1,26.8
2016-09-25 00:10:00,0.0,1.93111,0.00087,394.375,0.064,0.5386,0.0035,140.000,45.000,31420.64462,1.94141,396.968,36.123,45.071,45.000,0.00,0.07,-272.89,-272.91,-9,522,-934,21.1,16.4,-5.4,21.2,16.5,-5.2,0.49,2.04,0.1,26.8
2016-09-25 00:11:00,0.0,1.93158,0.00143,394.311,0.102,0.5451,0.0021,140.000,45.000,31420.68157,1.94220,396.942,36.124,45.070,45.000,0.00,0.08,-272.88,-272.91,-7,522,-934,21.1,16.6,-5.2,21.2,16.7,-5.0,0.49,1.87,0.1,26.8
2016-09-25 00:12:00,0.0,1.92854,0.00094,394.178,0.051,0.5408,0.0043,139.998,45.000,31419.60576,1.93906,396.785,36.123,45.070,45.000,0.00,0.08,-272.86,-272.91,-8,522,-934,21.1,16.5,-5.3,21.2,16.7,-5.0,0.49,1.80,0.1,26.8
2016-09-25 00:13:00,0.0,1.92786,0.00067,394.203,0.053,0.5333,0.0028,139.999,45.000,31417.06571,1.93817,396.773,36.103,45.070,45.000,0.00,0.07,-272.87,-272.92,-8,522,-934,21.1,16.2,-5.5,21.3,16.5,-5.2,0.49,2.07,0.1,26.8
2016-09-25 00:14:00,0.0,1.92698,0.00054,394.145,0.045,0.5285,0.0040,139.996,45.000,31415.00510,1.93715,396.691,36.087,45.070,45.000,0.00,0.07,-272.87,-272.91,-7,522,-934,21.1,16.0,-5.7,21.3,16.3,-5.3,0.49,1.79,0.1,26.8
2016-09-25 00:15:00,0.0,1.92749,0.00028,394.210,0.045,0.5265,0.0028,139.996,45.000,31414.06213,1.93765,396.746,36.066,45.070,45.000,0.00,0.08,-272.86,-272.91,-9,522,-934,21.1,16.0,-5.7,21.3,16.1,-5.5,0.50,1.88,0.1,26.8
2016-09-25 00:16:00,0.0,1.92707,0.00044,394.192,0.031,0.5259,0.0020,140.002,45.000,31415.34284,1.93717,396.725,36.075,45.070,45.000,0.00,0.07,-272.87,-272.91,-7,522,-934,21.1,16.0,-5.7,21.3,16.2,-5.4,0.49,2.04,0.1,26.8
2016-09-25 00:17:00,0.0,1.92719,0.00045,394.202,0.034,0.5310,0.0025,140.001,45.000,31416.23556,1.93746,396.762,36.097,45.070,45.000,0.00,0.08,-272.88,-272.91,-9,522,-934,21.1,16.1,-5.6,21.3,16.2,-5.4,0.49,1.74,0.1,26.8
2016-09-25 00:18:00,0.0,1.92721,0.00040,394.166,0.040,0.5321,0.0019,139.999,45.000,31416.95862,1.93746,396.728,36.100,45.070,45.000,0.00,0.08,-272.86,-272.91,-7,522,-934,21.1,16.2,-5.5,21.3,16.3,-5.3,0.50,1.97,0.1,26.8
2016-09-25 00:19:00,0.0,1.92787,0.00050,394.223,0.031,0.5375,0.0024,140.000,45.000,31418.63344,1.93822,396.811,36.075,45.070,45.000,0.00,0.08,-272.88,-272.91,-8,522,-934,21.1,16.3,-5.4,21.3,16.4,-5.2,0.49,1.96,0.1,26.7
2016-09-25 00:20:00,0.0,1.92768,0.00071,394.191,0.041,0.5442,0.0025,140.001,45.000,31419.44577,1.93817,396.814,36.071,45.070,45.000,0.00,0.07,-272.87,-272.92,-8,522,-934,21.2,16.6,-5.2,21.3,16.7,-5.0,0.49,1.75,0.1,26.8
2016-09-25 00:21:00,0.0,1.92765,0.00043,394.227,0.030,0.5425,0.0024,140.000,45.000,31417.30594,1.93812,396.841,36.073,45.070,45.000,0.00,0.07,-272.87,-272.91,-7,522,-934,21.2,16.5,-5.2,21.3,16.7,-5.0,0.49,2.04,0.1,26.8
2016-09-25 00:22:00,0.0,1.92673,0.00051,394.165,0.027,0.5469,0.0021,139.998,45.000,31419.12166,1.93730,396.802,36.080,45.070,45.000,0.00,0.08,-272.87,-272.90,-9,522,-934,21.2,16.6,-5.2,21.3,16.8,-5.0,0.49,1.89,0.1,26.8
2016-09-25 00:23:00,0.0,1.92607,0.00043,394.148,0.040,0.5455,0.0020,140.000,45.000,31418.39329,1.93660,396.777,36.092,45.070,45.000,0.00,0.08,-272.88,-272.91,-7,522,-934,21.2,16.6,-5.2,21.3,16.8,-5.0,0.49,1.79,0.1,26.8
2016-09-25 00:24:00,0.0,1.92629,0.00051,394.170,0.032,0.5479,0.0027,140.001,45.000,31420.16541,1.93681,396.810,36.100,45.070,45.000,0.00,0.07,-272.88,-272.92,-8,522,-934,21.2,16.7,-5.1,21.3,16.8,-4.9,0.49,2.06,0.1,26.8
2016-09-25 00:25:00,0.0,1.92621,0.00041,394.169,0.035,0.5513,0.0021,139.999,45.000,31420.23329,1.93688,396.826,36.117,45.070,45.000,0.00,0.08,-272.87,-272.90,-8,522,-934,21.1,16.8,-5.1,21.3,16.9,-4.8,0.49,1.82,0.1,26.8
2016-09-25 00:26:00,0.0,1.92689,0.00067,394.214,0.040,0.5524,0.0033,140.002,45.000,31421.77042,1.93753,396.877,36.125,45.070,45.000,0.00,0.08,-272.87,-272.91,-8,522,-934,21.2,16.8,-5.0,21.3,16.9,-4.8,0.49,1.85,0.1,26.8
2016-09-25 00:27:00,0.0,1.92733,0.00074,394.170,0.045,0.5561,0.0026,139.999,45.000,31421.07005,1.93801,396.850,36.124,45.070,45.000,0.00,0.07,-272.88,-272.91,-9,522,-934,21.2,16.9,-4.9,21.3,17.0,-4.7,0.49,2.06,0.1,26.8
2016-09-25 00:28:00,0.0,1.92698,0.00098,394.177,0.038,0.5589,0.0020,140.000,45.000,31421.00938,1.93775,396.871,36.108,45.070,45.000,0.00,0.08,-272.86,-272.91,-7,522,-934,21.2,17.0,-4.8,21.3,17.1,-4.7,0.49,1.77,0.1,26.8
2016-09-25 00:29:00,0.0,1.92858,0.00092,394.204,0.032,0.5611,0.0033,139.999,45.000,31421.49791,1.93934,396.910,36.070,45.070,45.000,0.00,0.07,-272.86,-272.91,-9,522,-934,21.2,17.1,-4.8,21.3,17.2,-4.6,0.49,1.91,0.1,26.8
2016-09-25 00:30:00,0.0,1.92863,0.00101,394.138,0.043,0.5666,0.0030,139.999,45.000,31418.92991,1.93963,396.870,36.070,45.070,45.000,0.00,0.08,-272.88,-272.91,-7,522,-934,21.2,17.3,-4.6,21.3,17.4,-4.5,0.49,2.02,0.1,26.8
2016-09-25 00:31:00,0.0,1.92673,0.00139,394.212,0.036,0.5594,0.0025,139.999,45.000,31418.95852,1.93762,396.909,36.076,45.070,45.000,0.00,0.08,-272.87,-272.91,-8,522,-934,21.2,17.0,-4.8,21.3,17.3,-4.5,0.49,1.74,0.1,26.8
2016-09-25 00:32:00,0.0,1.92674,0.00066,394.178,0.044,0.5544,0.0023,140.000,45.000,31419.99043,1.93739,396.852,36.072,45.071,45.000,0.00,0.08,-272.87,-272.91,-8,522,-934,21.2,16.9,-4.9,21.3,17.1,-4.7,0.50,1.99,0.1,26.8
2016-09-25 00:33:00,0.0,1.92683,0.00047,394.200,0.024,0.5549,0.0017,139.996,45.000,31416.59843,1.93750,396.874,36.065,45.071,45.000,0.00,0.08,-272.87,-272.91,-7,522,-934,21.1,16.9,-5.0,21.3,17.0,-4.7,0.49,1.94,0.1,26.8
2016-09-25 00:34:00,0.0,1.92794,0.00078,394.243,0.032,0.5571,0.0022,139.999,45.000,31417.06419,1.93865,396.929,36.066,45.070,45.000,0.00,0.08,-272.87,-272.92,-9,522,-934,21.1,17.0,-4.9,21.3,17.1,-4.7,0.49,1.75,0.1,26.8
2016-09-25 00:35:00,0.0,1.92717,0.00119,394.163,0.044,0.5616,0.0020,139.999,45.000,31417.85694,1.93809,396.873,36.065,45.070,45.000,0.00,0.07,-272.87,-272.91,-7,522,-934,21.1,17.1,-4.8,21.3,17.2,-4.6,0.49,2.04,0.1,26.8
2016-09-25 00:36:00,0.0,1.92603,0.00075,394.187,0.059,0.5558,0.0044,139.997,45.000,31416.64438,1.93668,396.865,36.075,45.070,45.000,0.00,0.08,-272.87,-272.90,-8,522,-934,21.1,16.9,-4.9,21.3,17.2,-4.7,0.49,1.87,0.1,26.8
2016-09-25 00:37:00,0.0,1.92776,0.00077,394.237,0.035,0.5595,0.0029,139.999,45.000,31416.24990,1.93852,396.934,36.091,45.070,45.000,0.00,0.08,-272.88,-272.92,-8,522,-934,21.2,17.0,-4.8,21.3,17.1,-4.7,0.49,1.79,0.1,26.8
2016-09-25 00:38:00,0.0,1.93054,0.00150,394.222,0.051,0.5643,0.0019,140.002,45.000,31416.00461,1.94132,396.942,36.107,45.070,45.000,0.00,0.07,-272.88,-272.91,-8,522,-934,21.2,17.2,-4.7,21.3,17.3,-4.5,0.49,2.07,0.1,26.8
2016-09-25 00:39:00,0.0,1.92881,0.00242,394.076,0.182,0.5709,0.0024,139.997,45.000,31414.11198,1.94010,396.838,36.082,45.070,45.000,0.00,0.08,-272.87,-272.91,-9,522,-934,21.2,17.4,-4.6,21.3,17.5,-4.4,0.49,1.79,0.1,26.8
2016-09-25 00:40:00,0.0,1.92647,0.00094,393.873,0.065,0.5528,0.0064,140.002,45.000,31415.69090,1.93709,396.537,36.075,45.070,45.000,0.00,0.07,-272.87,-272.91,-7,522,-934,21.1,16.8,-5.0,21.3,17.2,-4.6,0.49,1.87,0.1,26.8
2016-09-25 00:41:00,0.0,1.92545,0.00064,393.871,0.054,0.5465,0.0018,140.000,45.000,31415.27541,1.93596,396.501,36.082,45.070,45.000,0.00,0.08,-272.88,-272.91,-9,522,-934,21.2,16.6,-5.2,21.3,16.8,-4.9,0.49,2.04,0.1,26.8
2016-09-25 00:42:00,0.0,1.92549,0.00050,393.907,0.081,0.5451,0.0019,140.000,45.000,31415.64338,1.93602,396.536,36.073,45.070,45.000,0.00,0.08,-272.86,-272.91,-7,522,-934,21.1,16.5,-5.2,21.3,16.7,-5.0,0.49,1.75,0.1,26.8
2016-09-25 00:43:00,0.0,1.92598,0.00056,393.842,0.126,0.5432,0.0031,139.998,45.000,31416.77539,1.93643,396.452,36.064,45.070,45.000,0.00,0.07,-272.87,-272.91,-8,522,-934,21.1,16.5,-5.3,21.3,16.7,-5.0,0.49,1.95,0.1,26.8
2016-09-25 00:44:00,0.0,1.92529,0.00073,393.882,0.090,0.5430,0.0045,139.998,45.000,31415.56347,1.93571,396.496,36.063,45.071,45.000,0.00,0.08,-272.88,-272.91,-8,522,-934,21.1,16.5,-5.3,21.3,16.7,-5.0,0.49,1.99,0.1,26.8
2016-09-25 00:45:00,0.0,1.92565,0.00058,393.848,0.109,0.5434,0.0038,140.000,45.000,31418.80225,1.93615,396.471,36.064,45.071,45.000,0.00,0.08,-272.87,-272.91,-7,522,-934,21.1,16.5,-5.3,21.3,16.6,-5.1,0.49,1.74,0.1,26.8
2016-09-25 00:46:00,0.0,1.92539,0.00042,393.739,0.107,0.5382,0.0024,139.997,45.000,31418.13469,1.93578,396.329,36.063,45.071,45.000,0.00,0.08,-272.87,-272.91,-9,522,-934,21.1,16.3,-5.4,21.3,16.6,-5.1,0.49,2.02,0.1,26.8
2016-09-25 00:47:00,0.0,1.92636,0.00072,394.084,0.135,0.5352,0.0034,139.999,45.000,31417.88955,1.93658,396.653,36.062,45.071,45.000,0.00,0.08,-272.88,-272.91,-7,522,-934,21.2,16.2,-5.5,21.3,16.4,-5.2,0.49,1.93,0.1,26.8
2016-09-25 00:48:00,0.0,1.92631,0.00078,394.046,0.117,0.5467,0.0040,140.000,45.000,31418.67195,1.93694,396.683,36.063,45.070,45.000,0.00,0.08,-272.87,-272.91,-8,522,-934,21.2,16.6,-5.2,21.3,16.7,-5.0,0.49,1.76,0.1,26.8
2016-09-25 00:49:00,0.0,1.92623,0.00058,393.987,0.063,0.5416,0.0025,140.000,45.000,31419.50777,1.93663,396.599,36.064,45.070,45.000,0.00,0.08,-272.87,-272.91,-8,522,-934,21.2,16.4,-5.3,21.3,16.7,-5.0,0.49,2.06,0.1,26.8
2016-09-25 00:50:00,0.0,1.92544,0.00041,393.913,0.108,0.5352,0.0038,140.000,45.000,31420.52815,1.93576,396.489,36.063,45.070,45.000,0.00,0.08,-272.88,-272.91,-8,522,-934,21.2,16.2,-5.5,21.3,16.5,-5.2,0.49,1.85,0.1,26.8
2016-09-25 00:51:00,0.0,1.92661,0.00091,394.017,0.048,0.5373,0.0027,139.998,45.000,31418.12918,1.93692,396.604,36.065,45.070,45.000,0.00,0.07,-272.87,-272.91,-8,522,-934,21.2,16.3,-5.4,21.3,16.4,-5.2,0.49,1.81,0.1,26.8
2016-09-25 00:52:00,0.0,1.92719,0.00082,393.871,0.050,0.5424,0.0041,139.998,45.000,31416.15389,1.93763,396.485,36.063,45.070,45.000,0.00,0.08,-272.87,-272.91,-7,522,-934,21.2,16.4,-5.3,21.3,16.6,-5.1,0.49,2.07,0.1,26.8
2016-09-25 00:53:00,0.0,1.92764,0.00030,393.879,0.066,0.5408,0.0014,140.000,45.000,31416.56200,1.93806,396.480,36.068,45.070,45.000,0.00,0.08,-272.87,-272.91,-9,522,-934,21.2,16.4,-5.3,21.3,16.6,-5.1,0.49,1.79,0.1,26.8
2016-09-25 00:54:00,0.0,1.92669,0.00099,393.854,0.089,0.5415,0.0046,139.999,45.000,31417.09557,1.93717,396.459,36.103,45.070,45.000,0.00,0.07,-272.87,-272.91,-7,522,-934,21.2,16.4,-5.3,21.3,16.6,-5.1,0.49,1.88,0.1,26.8
2016-09-25 00:55:00,0.0,1.92699,0.00067,393.981,0.115,0.5368,0.0052,139.999,45.000,31416.80980,1.93730,396.570,36.129,45.070,45.000,0.00,0.08,-272.88,-272.91,-8,522,-934,21.2,16.3,-5.4,21.3,16.5,-5.2,0.49,2.04,0.1,26.8
2016-09-25 00:56:00,0.0,1.92717,0.00099,393.850,0.103,0.5399,0.0027,140.001,45.000,31420.24475,1.93761,396.451,36.146,45.070,44.999,0.00,0.08,-272.86,-272.91,-8,522,-934,21.2,16.4,-5.4,21.3,16.5,-5.1,0.49,1.75,0.1,26.8
2016-09-25 00:57:00,0.0,1.92706,0.00042,393.895,0.045,0.5354,0.0022,139.999,45.000,31418.04095,1.93738,396.469,36.161,45.070,44.999,0.00,0.07,-272.87,-272.92,-7,522,-934,21.2,16.2,-5.5,21.3,16.5,-5.2,0.49,1.96,0.1,26.8
2016-09-25 00:58:00,0.0,1.92691,0.00043,393.953,0.035,0.5446,0.0022,139.999,45.000,31417.74257,1.93740,396.576,36.171,45.070,44.999,0.00,0.07,-272.88,-272.91,-9,522,-934,21.2,16.5,-5.2,21.3,16.6,-5.1,0.49,1.99,0.1,26.8
2016-09-25 00:59:00,0.0,1.92801,0.00070,394.039,0.044,0.5446,0.0026,140.000,45.000,31418.47852,1.93851,396.662,36.161,45.070,44.999,0.00,0.08,-272.86,-272.90,-7,522,-934,21.2,16.5,-5.2,21.3,16.7,-5.0,0.49,1.74,0.1,26.8
2016-09-25 01:00:00,0.0,1.92697,0.00074,394.008,0.047,0.5421,0.0049,140.003,45.000,31419.50355,1.93739,396.619,36.169,45.070,44.999,0.00,0.07,-272.87,-272.91,-8,522,-934,21.2,16.4,-5.3,21.3,16.7,-5.0,0.49,2.02,0.1,26.8
2016-09-25 01:01:00,0.0,1.92772,0.00065,394.052,0.040,0.5411,0.0029,140.001,45.000,31418.84037,1.93817,396.659,36.148,45.070,45.000,0.00,0.08,-272.88,-272.91,-8,522,-934,21.2,16.4,-5.3,21.3,16.6,-5.1,0.49,1.92,0.1,26.8
2016-09-25 01:02:00,0.0,1.92810,0.00105,394.016,0.045,0.5457,0.0019,140.000,45.000,31418.36649,1.93851,396.644,36.130,45.070,45.000,0.00,0.08,-272.87,-272.91,-8,522,-934,21.2,16.5,-5.2,21.3,16.7,-5.0,0.49,1.77,0.1,26.8
2016-09-25 01:03:00,0.0,1.92833,0.00194,393.977,0.064,0.5438,0.0041,139.999,45.000,31418.97743,1.93887,396.600,36.124,45.070,45.000,0.00,0.08,-272.88,-272.90,-8,522,-934,21.2,16.5,-5.2,21.3,16.7,-5.0,0.49,2.06,0.1,26.8
2016-09-25 01:04:00,0.0,1.92809,0.00076,393.936,0.036,0.5388,0.0021,139.997,45.000,31418.57920,1.93856,396.531,36.124,45.071,45.000,0.00,0.08,-272.88,-272.91,-7,522,-934,21.2,16.3,-5.4,21.3,16.6,-5.1,0.49,1.84,0.1,26.8
2016-09-25 01:05:00,0.0,1.92868,0.00070,393.886,0.041,0.5369,0.0021,139.999,45.000,31417.85832,1.93898,396.474,36.116,45.071,45.000,0.00,0.08,-272.87,-272.91,-9,522,-934,21.2,16.2,-5.4,21.3,16.5,-5.2,0.49,1.82,0.1,26.8
2016-09-25 01:06:00,0.0,1.92953,0.00135,393.905,0.047,0.5360,0.0019,139.998,45.000,31415.18058,1.93996,396.483,36.099,45.071,45.000,0.00,0.07,-272.87,-272.90,-7,522,-934,21.2,16.2,-5.4,21.3,16.4,-5.2,0.49,2.06,0.1,26.8
2016-09-25 01:07:00,0.0,1.92890,0.00120,393.998,0.059,0.5415,0.0026,139.999,45.000,31415.55541,1.93928,396.604,36.112,45.070,45.000,0.00,0.07,-272.87,-272.91,-8,522,-934,21.2,16.4,-5.3,21.3,16.5,-5.1,0.49,1.77,0.1,26.8
2016-09-25 01:08:00,0.0,1.93011,0.00175,394.064,0.045,0.5489,0.0028,139.998,45.000,31414.85842,1.94072,396.710,36.085,45.070,44.999,0.00,0.07,-272.88,-272.92,-8,522,-934,21.2,16.6,-5.1,21.3,16.7,-5.0,0.49,1.91,0.1,26.8
2016-09-25 01:09:00,0.0,1.92850,0.00089,394.019,0.067,0.5505,0.0027,139.998,45.000,31414.98887,1.93917,396.673,36.074,45.070,44.999,0.00,0.08,-272.87,-272.90,-8,522,-934,21.2,16.6,-5.1,21.3,16.9,-4.9,0.49,2.02,0.1,26.8
2016-09-25 01:10:00,0.0,1.92781,0.00101,393.921,0.063,0.5446,0.0027,140.000,45.000,31416.33031,1.93825,396.545,36.085,45.070,44.999,0.00,0.08,-272.87,-272.91,-9,522,-934,21.2,16.5,-5.3,21.3,16.8,-4.9,0.49,1.74,0.1,26.8
2016-09-25 01:11:00,0.0,1.92914,0.00196,393.957,0.082,0.5378,0.0025,139.999,45.000,31417.52736,1.93950,396.546,36.067,45.070,45.000,0.00,0.07,-272.87,-272.93,-7,522,-934,21.2,16.3,-5.4,21.3,16.5,-5.1,0.49,1.99,0.1,26.8
2016-09-25 01:12:00,0.0,1.92889,0.00105,393.966,0.068,0.5443,0.0042,140.001,45.000,31418.38811,1.93935,396.586,36.065,45.070,45.000,0.00,0.08,-272.87,-272.91,-9,522,-934,21.2,16.5,-5.3,21.3,16.7,-5.0,0.49,1.96,0.1,26.8
2016-09-25 01:13:00,0.0,1.92828,0.00134,394.055,0.031,0.5374,0.0025,140.000,45.000,31417.78449,1.93871,396.644,36.067,45.070,45.000,0.00,0.08,-272.87,-272.91,-8,522,-934,21.2,16.2,-5.4,21.3,16.5,-5.1,0.49,1.75,0.1,26.8
2016-09-25 01:14:00,0.0,1.92842,0.00109,394.093,0.040,0.5413,0.0043,139.999,45.000,31416.42139,1.93886,396.699,36.102,45.071,45.000,0.00,0.07,-272.87,-272.92,-8,522,-934,21.2,16.3,-5.3,21.3,16.5,-5.1,0.49,2.01,0.1,26.8
2016-09-25 01:15:00,0.0,1.93203,0.00116,394.269,0.051,0.5410,0.0037,140.000,45.000,31416.94031,1.94236,396.874,36.121,45.070,45.000,0.00,0.08,-272.88,-272.91,-9,522,-934,21.2,16.3,-5.3,21.3,16.5,-5.1,0.49,1.92,0.1,26.8
2016-09-25 01:16:00,0.0,1.92733,0.00165,394.247,0.087,0.5466,0.0041,140.002,45.000,31416.83776,1.93809,396.885,36.119,45.070,44.999,0.00,0.08,-272.87,-272.90,-7,522,-934,21.3,16.5,-5.2,21.3,16.7,-4.9,0.49,1.76,0.1,26.8
2016-09-25 01:17:00,0.0,1.92638,0.00074,394.097,0.061,0.5356,0.0023,140.000,45.000,31415.73562,1.93670,396.680,36.121,45.069,44.999,0.00,0.07,-272.88,-272.91,-9,522,-934,21.3,16.1,-5.5,21.3,16.5,-5.1,0.49,2.03,0.1,26.9
2016-09-25 01:18:00,0.0,1.92630,0.00068,394.043,0.062,0.5329,0.0045,139.998,45.000,31416.11935,1.93654,396.609,36.102,45.069,44.999,0.00,0.08,-272.88,-272.91,-8,522,-934,21.3,16.0,-5.6,21.3,16.3,-5.3,0.49,1.90,0.1,26.8
2016-09-25 01:19:00,0.0,1.92650,0.00040,394.034,0.036,0.5356,0.0042,139.999,45.000,31415.54669,1.93685,396.613,36.081,45.070,45.000,0.00,0.08,-272.86,-272.91,-8,522,-934,21.2,16.1,-5.5,21.3,16.3,-5.2,0.49,1.77,0.1,26.8
2016-09-25 01:20:00,0.0,1.92663,0.00053,394.125,0.055,0.5299,0.0028,140.001,45.000,31416.94357,1.93680,396.675,36.073,45.070,45.000,0.00,0.07,-272.87,-272.91,-9,522,-934,21.3,15.9,-5.6,21.3,16.2,-5.4,0.49,2.05,0.1,26.8
2016-09-25 01:21:00,0.0,1.92656,0.00035,394.164,0.034,0.5365,0.0019,140.003,45.000,31415.31937,1.93692,396.750,36.079,45.071,45.000,0.00,0.07,-272.88,-272.91,-7,523,-934,21.3,16.1,-5.5,21.3,16.3,-5.2,0.49,1.87,0.1,26.8
2016-09-25 01:22:00,0.0,1.92662,0.00045,394.051,0.049,0.5342,0.0041,139.999,45.000,31413.69933,1.93691,396.624,36.072,45.070,45.000,0.00,0.08,-272.87,-272.91,-9,522,-934,21.3,16.0,-5.5,21.3,16.3,-5.2,0.49,1.80,0.1,26.8
2016-09-25 01:23:00,0.0,1.92703,0.00049,394.168,0.044,0.5356,0.0043,140.000,45.000,31412.77690,1.93735,396.746,36.063,45.070,44.999,0.00,0.08,-272.87,-272.90,-7,522,-934,21.3,16.1,-5.5,21.3,16.3,-5.3,0.49,2.06,0.1,26.8
2016-09-25 01:24:00,0.0,1.92739,0.00049,394.276,0.036,0.5354,0.0033,140.000,45.000,31413.82252,1.93770,396.855,36.033,45.070,44.999,0.00,0.08,-272.88,-272.91,-8,522,-934,21.3,16.1,-5.5,21.3,16.4,-5.2,0.49,1.82,0.1,26.8
2016-09-25 01:25:00,0.0,1.92699,0.00053,394.298,0.042,0.5383,0.0023,140.001,45.000,31414.01561,1.93735,396.893,36.044,45.070,45.000,0.00,0.08,-272.87,-272.92,-8,522,-934,21.3,16.2,-5.4,21.3,16.5,-5.2,0.49,1.84,0.1,26.8
2016-09-25 01:26:00,0.0,1.92745,0.00048,394.308,0.037,0.5367,0.0018,139.999,45.000,31413.53415,1.93779,396.895,36.023,45.070,45.000,0.00,0.08,-272.87,-272.91,-7,523,-934,21.3,16.1,-5.5,21.3,16.4,-5.2,0.49,2.06,0.1,26.8
2016-09-25 01:27:00,0.0,1.92788,0.00122,394.356,0.058,0.5466,0.0039,139.999,45.000,31414.51788,1.93845,396.992,36.008,45.071,45.001,0.00,0.08,-272.87,-272.91,-9,522,-934,21.3,16.4,-5.2,21.3,16.6,-5.1,0.49,1.78,0.1,26.8
2016-09-25 01:28:00,0.0,1.92751,0.00061,394.293,0.042,0.5410,0.0026,139.998,45.000,31414.44060,1.93796,396.903,36.006,45.071,45.001,0.00,0.07,-272.88,-272.92,-7,522,-934,21.3,16.3,-5.3,21.3,16.6,-5.0,0.49,1.89,0.1,26.8
2016-09-25 01:29:00,0.0,1.92756,0.00081,394.276,0.066,0.5304,0.0039,140.001,45.000,31415.16514,1.93772,396.830,36.002,45.071,45.001,0.00,0.08,-272.88,-272.90,-8,523,-934,21.3,15.9,-5.7,21.3,16.3,-5.3,0.49,2.04,0.1,26.8
2016-09-25 01:30:00,0.0,1.92885,0.00044,394.266,0.035,0.5410,0.0050,140.000,45.000,31414.87922,1.93929,396.873,36.000,45.071,45.000,0.00,0.08,-272.87,-272.90,-8,522,-934,21.3,16.2,-5.4,21.4,16.4,-5.2,0.49,1.76,0.1,26.8
2016-09-25 01:31:00,0.0,1.92699,0.00077,394.263,0.050,0.5364,0.0072,139.997,45.000,31414.42249,1.93735,396.848,36.001,45.071,45.000,0.00,0.07,-272.88,-272.92,-7,523,-934,21.3,16.1,-5.5,21.4,16.5,-5.1,0.49,1.94,0.1,26.8
2016-09-25 01:32:00,0.0,1.92751,0.00086,394.344,0.040,0.5250,0.0022,139.999,45.000,31414.83775,1.93765,396.872,36.000,45.071,45.000,0.00,0.08,-272.88,-272.91,-9,522,-934,21.3,15.8,-5.8,21.3,16.1,-5.4,0.49,2.00,0.1,26.8
2016-09-25 01:33:00,0.0,1.92660,0.00061,394.361,0.032,0.5253,0.0020,139.999,45.000,31416.89312,1.93673,396.893,36.010,45.071,45.000,0.00,0.08,-272.86,-272.90,-7,522,-934,21.3,15.7,-5.8,21.3,16.0,-5.5,0.49,1.74,0.1,26.8
2016-09-25 01:34:00,0.0,1.92777,0.00101,394.314,0.049,0.5341,0.0036,140.001,45.000,31418.88507,1.93800,396.887,36.037,45.071,45.000,0.00,0.07,-272.87,-272.91,-8,523,-934,21.3,16.1,-5.5,21.3,16.2,-5.4,0.49,1.98,0.1,26.8
2016-09-25 01:35:00,0.0,1.92695,0.00120,394.311,0.042,0.5352,0.0039,140.001,45.000,31419.54848,1.93737,396.890,36.053,45.071,45.000,0.00,0.07,-272.88,-272.91,-8,522,-934,21.3,16.1,-5.5,21.3,16.3,-5.3,0.49,1.97,0.1,26.8
2016-09-25 01:36:00,0.0,1.92790,0.00151,394.359,0.040,0.5321,0.0023,139.999,45.000,31419.34225,1.93809,396.923,36.061,45.071,45.000,0.00,0.08,-272.86,-272.91,-8,523,-934,21.3,16.0,-5.6,21.3,16.2,-5.3,0.49,1.74,0.1,26.9
2016-09-25 01:37:00,0.0,1.92882,0.00051,394.318,0.026,0.5396,0.0026,140.000,45.000,31419.90576,1.93921,396.919,36.060,45.071,45.000,0.00,0.07,-272.87,-272.91,-9,522,-934,21.3,16.2,-5.4,21.3,16.4,-5.2,0.49,2.02,0.1,26.8
2016-09-25 01:38:00,0.0,1.92786,0.00108,394.312,0.037,0.5392,0.0029,140.003,45.000,31422.38206,1.93834,396.912,36.064,45.070,45.000,0.00,0.07,-272.88,-272.91,-7,522,-934,21.3,16.2,-5.4,21.3,16.5,-5.1,0.49,1.92,0.1,26.9
2016-09-25 01:39:00,0.0,1.92635,0.00056,394.303,0.044,0.5256,0.0071,139.999,45.000,31421.08417,1.93645,396.835,36.063,45.070,45.000,0.00,0.08,-272.87,-272.91,-9,522,-934,21.3,15.8,-5.8,21.3,16.2,-5.3,0.49,1.76,0.1,26.9
2016-09-25 01:40:00,0.0,1.92622,0.00063,394.356,0.044,0.5224,0.0031,140.003,45.000,31421.91288,1.93630,396.875,36.066,45.070,45.000,0.00,0.08,-272.88,-272.91,-8,522,-934,21.2,15.7,-5.8,21.3,15.9,-5.6,0.49,2.05,0.1,26.8
2016-09-25 01:41:00,0.0,1.92581,0.00035,394.296,0.062,0.5193,0.0087,139.998,45.000,31418.28664,1.93582,396.797,36.087,45.070,45.000,0.00,0.08,-272.88,-272.91,-8,523,-934,21.3,15.5,-6.0,21.3,15.9,-5.6,0.49,1.86,0.1,26.9
2016-09-25 01:42:00,0.0,1.92636,0.00081,394.351,0.046,0.5135,0.0036,139.999,45.000,31417.64253,1.93619,396.824,36.087,45.070,45.000,0.00,0.08,-272.87,-272.91,-9,522,-934,21.3,15.4,-6.1,21.3,15.6,-5.8,0.49,1.80,0.1,26.9
2016-09-25 01:43:00,0.0,1.92617,0.00052,394.309,0.044,0.5231,0.0057,140.000,45.000,31417.08534,1.93630,396.829,36.105,45.070,45.000,0.00,0.08,-272.87,-272.91,-7,523,-934,21.3,15.6,-5.9,21.4,15.9,-5.6,0.49,2.07,0.1,26.9
2016-09-25 01:44:00,0.0,1.92577,0.00047,394.324,0.045,0.5136,0.0041,140.000,45.000,31417.25554,1.93566,396.799,36.098,45.070,45.000,0.00,0.08,-272.88,-272.91,-9,522,-934,21.3,15.4,-6.1,21.3,15.7,-5.8,0.49,1.80,0.1,26.9
2016-09-25 01:45:00,0.0,1.92686,0.00060,394.361,0.032,0.5152,0.0056,140.003,45.000,31417.65504,1.93670,396.840,36.086,45.070,45.000,0.00,0.07,-272.87,-272.91,-7,522,-934,21.3,15.4,-6.0,21.4,15.6,-5.8,0.49,1.86,0.1,26.8
2016-09-25 01:46:00,0.0,1.92750,0.00081,394.386,0.026,0.5249,0.0024,139.998,45.000,31416.18499,1.93764,396.915,36.086,45.070,44.999,0.00,0.08,-272.88,-272.90,-8,523,-934,21.3,15.7,-5.8,21.4,15.9,-5.5,0.49,2.05,0.1,26.8